Weather History for Tomahawk, WI

Change the Weather History Date:

Wednesday, November 21, 2012

  Actual Average (KRHI) Record (KRHI)
Temperature  
Mean Temperature 36 °F 27 °F  
Max Temperature 51 °F 35 °F 63 °F (1990)
Min Temperature 21 °F 20 °F -5 °F (1978)
Degree Days  
Heating Degree Days 29 38  
Month to date heating degree days 679  
Since 1 July heating degree days 1772  
Cooling Degree Days 0 0  
Month to date cooling degree days 0  
Year to date cooling degree days 261  
Moisture  
Dew Point 34 °F    
Average Humidity 84    
Maximum Humidity 100    
Minimum Humidity 58    
Precipitation  
Precipitation 0.00 in 0.06 in 0.85 in (1934)
Month to date precipitation 1.31  
Year to date precipitation 29.43  
Snow  
Snow 0.00 in - 7.50 in (1956)
Month to date snowfall  
Since 1 July snowfall  
Since 1 September snowfall  
Snow Depth -    
Sea Level Pressure  
Sea Level Pressure 29.97 in    
Wind  
Wind Speed 2 mph (South)    
Max Wind Speed 6 mph    
Max Gust Speed -    
Visibility 7 miles    
Events Fog    
T = Trace of Precipitation, MM = Missing Value Source: NWS Daily Summary

Daily Weather History Graph

Daily Weather History Graph

Search for Another Location

Airport:

Trip Planner

Search our weather history database for the weather conditions in past years. The results will help you decide how hot, cold, wet, or windy it might be!

Date:

Astronomy

Nov. 21, 2012 Rise Set
Actual Time 7:06 AM CST 4:23 PM CST
Civil Twilight 6:34 AM CST 4:55 PM CST
Nautical Twilight 5:57 AM CST 5:32 PM CST
Astronomical Twilight 5:22 AM CST 6:07 PM CST
Moon 12:56 PM CST (11/21) 12:07 AM CST (11/21)
Length of Visible Light 10h 21m
Length of Day
9h 16m
First Quarter, 62% of the Moon is Illuminated
Nov 21
First Quarter
Nov 28
Full
Dec 6
Last Quarter
Dec 13
New
Dec 19
First Quarter

Hourly Weather History & Observations

Time (CST) Temp. Windchill Dew Point Humidity Pressure Visibility Wind Dir Wind Speed Gust Speed Precip Events Conditions
12:15 AM 26.6 °F - 26.6 °F 100% 30.10 in 5.0 mi Calm Calm - N/A   Clear
12:35 AM 26.6 °F - 26.6 °F 100% 30.10 in 4.0 mi Calm Calm - N/A   Clear
12:55 AM 24.8 °F - 23.0 °F 93% 30.10 in 7.0 mi Calm Calm - N/A   Clear
1:15 AM 26.6 °F - 24.8 °F 93% 30.10 in 5.0 mi Calm Calm - N/A   Clear
1:35 AM 26.6 °F - 23.0 °F 86% 30.09 in 5.0 mi Calm Calm - N/A   Clear
1:55 AM 23.0 °F - 21.2 °F 93% 30.09 in 5.0 mi Calm Calm - N/A   Clear
2:15 AM 23.0 °F - 21.2 °F 93% 30.09 in 5.0 mi Calm Calm - N/A   Clear
2:35 AM 24.8 °F - 23.0 °F 93% 30.09 in 5.0 mi Calm Calm - N/A   Clear
2:55 AM 23.0 °F - 23.0 °F 100% 30.08 in 3.0 mi Calm Calm - N/A   Clear
3:15 AM 23.0 °F - 23.0 °F 100% 30.08 in 2.0 mi Calm Calm - N/A   Clear
3:35 AM 21.2 °F - 21.2 °F 100% 30.08 in 7.0 mi Calm Calm - N/A   Mostly Cloudy
3:55 AM 24.8 °F - 23.0 °F 93% 30.08 in 0.5 mi Calm Calm - N/A Fog Light Freezing Fog
4:15 AM 32.0 °F 28.7 °F 30.2 °F 93% 30.08 in 0.2 mi South 3.5 mph - N/A Fog Light Freezing Fog
4:35 AM 32.0 °F - 32.0 °F 100% 30.07 in 0.5 mi Calm Calm - N/A Fog Fog
4:55 AM 32.0 °F - 30.2 °F 93% 30.07 in 0.2 mi Calm Calm - N/A Fog Light Freezing Fog
5:15 AM 32.0 °F - 30.2 °F 93% 30.07 in 0.2 mi Calm Calm - N/A Fog Light Freezing Fog
5:35 AM 32.0 °F - 32.0 °F 100% 30.06 in 0.5 mi Calm Calm - N/A Fog Fog
6:15 AM 32.0 °F - 32.0 °F 100% 30.05 in 0.5 mi Calm Calm - N/A Fog Fog
6:35 AM 32.0 °F 28.7 °F 32.0 °F 100% 30.04 in 0.5 mi SSE 3.5 mph - N/A Fog Fog
6:55 AM 32.0 °F 27.5 °F 32.0 °F 100% 30.04 in 0.8 mi SSE 4.6 mph - N/A   Overcast
7:15 AM 33.8 °F 29.6 °F 32.0 °F 93% 30.04 in 0.2 mi South 4.6 mph - N/A Fog Fog
7:35 AM 33.8 °F 30.8 °F 32.0 °F 93% 30.04 in 0.2 mi SSE 3.5 mph - N/A Fog Fog
7:55 AM 33.8 °F 29.6 °F 32.0 °F 93% 30.03 in 0.5 mi SSE 4.6 mph - N/A Fog Fog
8:15 AM 33.8 °F 30.8 °F 33.8 °F 100% 30.02 in 0.8 mi SSE 3.5 mph - N/A   Mostly Cloudy
8:35 AM 35.6 °F 31.7 °F 33.8 °F 93% 30.02 in 1.2 mi South 4.6 mph - N/A   Mist
8:55 AM 37.4 °F 32.8 °F 35.6 °F 93% 30.02 in 1.8 mi South 5.8 mph - N/A   Mist
9:15 AM 37.4 °F 33.8 °F 37.4 °F 100% 30.02 in 2.5 mi South 4.6 mph - N/A   Clear
9:35 AM 37.4 °F 33.8 °F 37.4 °F 100% 30.02 in 4.0 mi South 4.6 mph - N/A   Clear
9:55 AM 39.2 °F 35.0 °F 37.4 °F 93% 30.01 in 5.0 mi South 5.8 mph - N/A   Clear
10:15 AM 41.0 °F 37.1 °F 37.4 °F 87% 30.01 in 5.0 mi South 5.8 mph - N/A   Clear
10:35 AM 41.0 °F 38.0 °F 37.4 °F 87% 30.00 in 7.0 mi SSW 4.6 mph - N/A   Clear
10:55 AM 42.8 °F 41.1 °F 35.6 °F 76% 29.99 in 7.0 mi South 3.5 mph - N/A   Clear
11:15 AM 44.6 °F 42.2 °F 37.4 °F 76% 29.98 in 10.0 mi South 4.6 mph - N/A   Clear
11:35 AM 44.6 °F 41.4 °F 35.6 °F 71% 29.97 in 7.0 mi SSW 5.8 mph - N/A   Clear
11:55 AM 46.4 °F 45.2 °F 37.4 °F 71% 29.96 in 7.0 mi South 3.5 mph - N/A   Clear
12:15 PM 46.4 °F 45.2 °F 35.6 °F 66% 29.95 in 10.0 mi South 3.5 mph - N/A   Clear
12:35 PM 48.2 °F - 37.4 °F 66% 29.94 in 10.0 mi South 3.5 mph - N/A   Clear
12:55 PM 50.0 °F - 37.4 °F 62% 29.94 in 10.0 mi South 5.8 mph - N/A   Clear
1:15 PM 50.0 °F - 37.4 °F 62% 29.93 in 10.0 mi SSW 5.8 mph - N/A   Clear
1:35 PM 50.0 °F - 37.4 °F 62% 29.93 in 10.0 mi South 5.8 mph - N/A   Clear
1:55 PM 50.0 °F - 37.4 °F 62% 29.92 in 10.0 mi South 5.8 mph - N/A   Clear
2:15 PM 50.0 °F - 37.4 °F 62% 29.92 in 10.0 mi South 4.6 mph - N/A   Clear
2:35 PM 51.8 °F - 37.4 °F 58% 29.92 in 10.0 mi South 3.5 mph - N/A   Clear
2:55 PM 51.8 °F - 37.4 °F 58% 29.92 in 10.0 mi South 3.5 mph - N/A   Clear
3:15 PM 51.8 °F - 37.4 °F 58% 29.91 in 10.0 mi Calm Calm - N/A   Clear
3:35 PM 51.8 °F - 37.4 °F 58% 29.92 in 10.0 mi Calm Calm - N/A   Clear
3:55 PM 50.0 °F - 37.4 °F 62% 29.92 in 10.0 mi Calm Calm - N/A   Clear
4:15 PM 46.4 °F - 37.4 °F 71% 29.91 in 10.0 mi Calm Calm - N/A   Clear
4:35 PM 44.6 °F - 37.4 °F 76% 29.91 in 10.0 mi Calm Calm - N/A   Clear
4:55 PM 44.6 °F - 37.4 °F 76% 29.91 in 10.0 mi Calm Calm - N/A   Clear
5:15 PM 41.0 °F - 35.6 °F 81% 29.91 in 10.0 mi Calm Calm - N/A   Clear
5:35 PM 39.2 °F - 35.6 °F 87% 29.91 in 10.0 mi Calm Calm - N/A   Clear
5:55 PM 37.4 °F - 35.6 °F 93% 29.91 in 10.0 mi Calm Calm - N/A   Clear
6:15 PM 37.4 °F - 35.6 °F 93% 29.90 in 10.0 mi Calm Calm - N/A   Clear
6:35 PM 41.0 °F - 37.4 °F 87% 29.90 in 10.0 mi Calm Calm - N/A   Clear
6:55 PM 39.2 °F - 35.6 °F 87% 29.90 in 10.0 mi Calm Calm - N/A   Clear
7:15 PM 39.2 °F - 35.6 °F 87% 29.89 in 10.0 mi Calm Calm - N/A   Clear
7:35 PM 41.0 °F - 35.6 °F 81% 29.89 in 10.0 mi Calm Calm - N/A   Clear
7:55 PM 41.0 °F - 35.6 °F 81% 29.88 in 10.0 mi Calm Calm - N/A   Clear
8:15 PM 41.0 °F - 37.4 °F 87% 29.87 in 10.0 mi Calm Calm - N/A   Clear
8:35 PM 41.0 °F - 37.4 °F 87% 29.87 in 10.0 mi Calm Calm - N/A   Clear
8:55 PM 41.0 °F - 37.4 °F 87% 29.86 in 10.0 mi Calm Calm - N/A   Clear
9:15 PM 41.0 °F 39.0 °F 37.4 °F 87% 29.86 in 10.0 mi South 3.5 mph - N/A   Clear
9:35 PM 42.8 °F - 37.4 °F 81% 29.85 in 10.0 mi Calm Calm - N/A   Clear
9:55 PM 42.8 °F 41.1 °F 37.4 °F 81% 29.85 in 10.0 mi South 3.5 mph - N/A   Clear
10:15 PM 44.6 °F 43.1 °F 39.2 °F 81% 29.86 in 10.0 mi South 3.5 mph - N/A   Clear
10:35 PM 44.6 °F 42.2 °F 39.2 °F 81% 29.85 in 10.0 mi South 4.6 mph - N/A   Clear
10:55 PM 44.6 °F 43.1 °F 39.2 °F 81% 29.85 in 10.0 mi South 3.5 mph - N/A   Clear
11:15 PM 44.6 °F 43.1 °F 37.4 °F 76% 29.85 in 10.0 mi South 3.5 mph - N/A   Clear
11:35 PM 44.6 °F - 37.4 °F 76% 29.85 in 10.0 mi Calm Calm - N/A   Clear
11:55 PM 42.8 °F 41.1 °F 37.4 °F 81% 29.84 in 10.0 mi SSE 3.5 mph - N/A   Clear